Skip Navigation Links weather.gov 
NOAA logo-Select to go to the NOAA homepage NDBC Title GraphicClick to go to NDBC home page   Select to go to the NWS homepage
Home About Us Contact Us
 
 
    
    Station List

 Data Access
    Mobile Access
    Classic Maps
         Recent
         DART®
    Obs Search
    Ship Obs Report
    BuoyCAMs
    TAO
    DODS
    OceanSITES
    HF Radar
    OSMC
    Dial-A-Buoy
    RSS Feeds Image indicating link to RSS feed access page
    Web Widget
    Email Access
    Web Data Guide
    Maintenance Schedule
    Station Status Report

 Program Info
    TAO
    DART®
    IOOS®

 Publications
    NDBC PEA
    NDBC FONSI
    NDBC DQC Handbook

 FAQ
 Visitor Information
 
USA.gov is the U.S. government's official web portal to all federal, state and local government web resources and services.

Station FMOA1 - 8734673 - Fort Morgan, AL Image indicating link to RSS feed of recent meteorological observations for station FMOA1

Owned and maintained by NOAA's National Ocean Service
C-MAN Station
30.228 N 88.024 W (30°13'42" N 88°1'27" W)

Site elevation: 2 m above mean sea level
Air temp height: 17.5 m above site elevation
Anemometer height: 36.2 m above site elevation
Barometer elevation: 31 m above mean sea level

Search And Rescue (SAR) Data

Meteorological Observations from Nearby Stations and Ships Image indicating link to RSS feed of recent meteorological observations near station FMOA1

Regional HF Radar Surface Current Observations

Large icon indicates selected station.
yellow diamond Stations with recent data
red diamond Stations with no data in last 8 hours
     (24 hours for tsunami stations)


Conditions at FMOA1 as of
(2:00 am CST)
0800 GMT on 02/19/2019:
     

Click on the graph icon in the table below to see a time series plot of the last five days of that observation.

5-day plot - Wind Direction Wind Direction (WDIR): ENE ( 60 deg true )
5-day plot - Wind Speed Wind Speed (WSPD): 19 kts
5-day plot - Wind Gust Wind Gust (GST): 22 kts
5-day plot - Atmospheric Pressure Atmospheric Pressure (PRES): 30.18 in
5-day plot - Pressure Tendency Pressure Tendency (PTDY): -0.02 in ( Falling )
5-day plot - Air Temperature Air Temperature (ATMP): 58.6 °F
5-day plot - Wind Speed at 10 Meters Wind Speed at 10 meters (WSPD10M): 16 kts
5-day plot - Wind Speed at 10 Meters Wind Speed at 20 meters (WSPD20M): 17 kts
5-day plot - Wind Speed, Wind Gust and Atmospheric Pressure Combined plot of Wind Speed, Gust, and Air Pressure
NOS Water Level Observation Network Water Level
Previous observations
5-day plot - Wind Direction 5-day plot - Wind Speed 5-day plot - Wind Gust 5-day plot - Wave Height 5-day plot - Dominant Wave Period 5-day plot - Average Period 5-day plot - Mean Wave Direction 5-day plot - Atmospheric Pressure 5-day plot - Pressure Tendency 5-day plot - Air Temperature 5-day plot - Water Temperature 5-day plot - Dew Point 5-day plot - Salinity 5-day plot - Visibility 5-day plot - Tide (above MLLW)
MM DD TIME
(CST)
WDIR WSPD
kts
GST
kts
WVHT
ft
DPD
sec
APD
sec
MWD PRES
in
PTDY
in
ATMP
°F
WTMP
°F
DEWP
°F
SAL
psu
VIS
nmi
TIDE
ft
0219 1:54 amENE 19 20----30.18- 58.5-----
0219 1:48 am NE 19 21----30.19- 58.5-----
0219 1:42 am NE 19 22----30.19- 58.5-----
0219 1:36 amENE 18 21----30.19- 58.5-----
0219 1:30 amENE 18 22----30.19- 58.6-----
0219 1:24 am NE 19 21----30.19- 58.6-----
0219 1:18 am NE 21 22----30.18- 58.5-----
0219 1:12 am NE 21 24----30.17- 58.5-----
0219 1:06 am NE 21 24----30.17- 58.5-----
0219 1:00 amENE 20 22----30.18-0.04 58.6-----
021912:54 amENE 20 23----30.18- 58.6-----
021912:48 amENE 21 22----30.18- 58.6-----
021912:42 amENE 20 22----30.18- 58.6-----
021912:36 amENE 19 21----30.19- 58.6-----
021912:30 amENE 18 22----30.19- 58.5-----
021912:24 amENE 20 22----30.19- 58.5-----
021912:18 amENE 19 22----30.19- 58.5-----
021912:12 amENE 20 22----30.19- 58.5-----
021912:06 amENE 19 22----30.20- 58.5-----
021912:00 amENE 19 21----30.20-0.01 58.5-----
021811:54 pmENE 18 21----30.20- 58.5-----
021811:48 pmENE 18 19----30.21- 58.5-----
021811:42 pmENE 19 21----30.20- 58.5-----
021811:36 pm NE 19 21----30.20- 58.5-----
021811:30 pmENE 19 21----30.20- 58.6-----
021811:24 pmENE 16 19----30.21- 58.6-----
021811:18 pmENE 16 19----30.21- 58.6-----
021811:12 pmENE 18 20----30.21- 58.8-----
021811:06 pmENE 19 21----30.21- 58.6-----
021811:00 pmENE 20 24----30.20+0.01 58.8-----
021810:54 pmENE 18 21----30.21- 58.8-----
021810:48 pmENE 18 20----30.21- 59.0-----
021810:42 pmENE 19 20----30.21- 59.0-----
021810:36 pmENE 17 19----30.21- 58.8-----
021810:30 pmENE 16 19----30.22- 59.0-----
021810:24 pmENE 18 20----30.22- 59.0-----
021810:18 pmENE 18 20----30.22- 59.0-----
021810:12 pmENE 19 21----30.21- 59.0-----
021810:06 pmENE 19 21----30.21- 59.0-----
021810:00 pmENE 19 20----30.22+0.04 59.0-----
0218 9:54 pmENE 18 19----30.22- 59.0-----
0218 9:48 pmENE 19 21----30.22- 59.0-----
0218 9:42 pmENE 19 22----30.22- 59.0-----
0218 9:36 pmENE 19 22----30.22- 59.0-----
0218 9:30 pmENE 19 21----30.22- 59.2-----
0218 9:24 pm NE 20 23----30.22- 59.2-----
0218 9:18 pmENE 20 23----30.21-------
0218 9:12 pm NE 20 22----30.21- 59.0-----
0218 9:06 pm NE 21 24----30.21- 59.0-----
0218 9:00 pm NE 20 22----30.21+0.04 59.0-----
0218 8:54 pm NE 21 24----30.21- 58.8-----
0218 8:48 pm NE 20 22----30.21- 58.8-----
0218 8:42 pm NE 21 23----30.21- 58.8-----
0218 8:36 pm NE 20 22----30.21- 58.8-----
0218 8:30 pm NE 20 22----30.21- 58.6-----
0218 8:24 pm NE 21 23----30.21- 58.6-----
0218 8:18 pm NE 21 24----30.20- 58.6-----
0218 8:12 pm NE 20 23----30.20- 58.6-----
0218 8:06 pm NE 21 23----30.19- 58.5-----
0218 8:00 pm NE 21 25----30.19- 58.5-----
0218 7:54 pm NE 22 26----30.19- 58.5-----
0218 7:48 pm NE 21 24----30.19- 58.3-----
0218 7:42 pm NE 22 24----30.19- 58.3-----
0218 7:36 pmENE 22 25----30.19- 58.3-----
0218 7:30 pmENE 22 24----30.19- 58.3-----
0218 7:24 pmENE 22 24----30.19- 58.3-----
0218 7:18 pmENE 22 24----30.18- 58.3-----
0218 7:12 pmENE 22 25----30.18- 58.3-----
0218 7:06 pmENE 22 26----30.18- 58.3-----
0218 7:00 pmENE 23 26----30.17+0.03 58.3-----
0218 6:54 pm NE 23 26----30.17- 58.3-----
0218 6:48 pm NE 22 25----30.18- 58.3-----
0218 6:42 pm NE 23 25----30.17- 58.1-----
0218 6:36 pm NE 20 23----30.18- 58.1-----
0218 6:30 pm NE 22 25----30.17- 58.1-----
0218 6:24 pm NE 22 25----30.18- 58.1-----
0218 6:18 pm NE 22 25----30.17- 57.9-----
0218 6:12 pm NE 23 26----30.17- 57.9-----
0218 6:06 pm NE 22 27----30.17- 57.9-----
0218 6:00 pm NE 23 25----30.17+0.04 57.7-----
0218 5:54 pm NE 22 25----30.17- 57.7-----
0218 5:48 pm NE 21 24----30.16- 57.7-----
0218 5:42 pm NE 22 25----30.16- 57.6-----
0218 5:36 pmENE 25 28----30.15- 57.4-----
0218 5:30 pm NE 25 28----30.15- 57.4-----
0218 5:24 pm NE 23 26----30.15- 57.4-----
0218 5:18 pm NE 20 22----30.16- 57.2-----
0218 5:12 pm NE 19 21----30.16- 57.2-----
0218 5:06 pm NE 18 20----30.17- 57.2-----
0218 4:54 pm NE 19 22----30.16- 56.8-----
0218 4:48 pm NE 20 21----30.16- 56.8-----
0218 4:42 pm NE 20 22----30.16- 57.0-----
0218 4:36 pm NE 19 21----30.16- 56.8-----
0218 4:30 pm NE 18 20----30.16- 57.0-----
0218 4:24 pm NE 19 22----30.15- 56.8-----
0218 4:18 pm NE 19 21----30.15- 57.0-----
0218 4:12 pm NE 19 21----30.15- 56.8-----
0218 4:06 pm NE 19 21----30.15- 56.8-----
0218 4:00 pm NE 20 22----30.15+0.01 57.0-----
0218 3:54 pm NE 21 24----30.14- 57.2-----
0218 3:48 pm NE 23 25----30.14- 57.0-----
0218 3:42 pm NE 19 23----30.14- 56.8-----
0218 3:36 pm NE 19 21----30.14- 56.7-----
0218 3:30 pm NE 20 23----30.13- 56.7-----
0218 3:24 pm NE 19 22----30.14- 56.5-----
0218 3:18 pm NE 18 20----30.14- 56.3-----
0218 3:12 pm NE 18 20----30.14- 56.7-----
0218 3:00 pm NE 19 22----30.14-0.01 56.8-----
0218 2:54 pm NE 20 23----30.13- 56.7-----
0218 2:48 pm NE 22 25----30.13- 56.7-----
0218 2:42 pm NE 23 26----30.13- 56.3-----
0218 2:36 pm NE 24 28----30.13- 56.3-----
0218 2:30 pm NE 20 23----30.13- 56.3-----
0218 2:24 pm NE 23 25----30.13- 55.9-----
0218 2:18 pm NE 22 24----30.13- 55.9-----
0218 2:12 pm NE 23 25----30.13- 55.8-----
0218 2:06 pm NE 23 25----30.12- 55.6-----
0218 2:00 pm NE 22 25----30.13-0.03 55.6-----
0218 1:54 pm NE 23 25----30.13- 55.4-----
0218 1:48 pm NE 24 26----30.13- 55.4-----
0218 1:42 pm NE 22 25----30.13- 55.6-----
0218 1:36 pm NE 21 24----30.13- 55.0-----
0218 1:30 pm NE 23 26----30.13- 55.0-----
0218 1:24 pmNNE 20 24----30.14- 55.4-----
0218 1:18 pmNNE 20 23----30.14- 55.2-----
0218 1:12 pm NE 21 25----30.13- 55.6-----
0218 1:06 pm NE 22 25----30.13- 55.9-----
0218 1:00 pm NE 21 25----30.13-0.01 55.6-----
021812:54 pm NE 23 27----30.13- 55.6-----
021812:48 pm NE 24 27----30.13- 55.2-----
021812:42 pmNNE 25 28----30.13- 55.4-----
021812:36 pmNNE 23 28----30.14- 55.2-----
021812:30 pm NE 22 26----30.14- 55.6-----
021812:24 pmNNE 23 26----30.15- 55.4-----
021812:18 pmNNE 23 25----30.15- 55.2-----
021812:12 pmNNE 22 24----30.15- 55.6-----
021812:06 pmNNE 24 26----30.14- 55.4-----
021812:00 pmNNE 25 27----30.14+0.02 55.4-----
021811:54 amNNE 21 23----30.15- 55.8-----
021811:48 amNNE 24 27----30.15- 55.4-----
021811:42 amNNE 21 24----30.16- 55.4-----
021811:36 amNNE 23 26----30.16- 55.2-----
021811:30 amNNE 23 25----30.15- 55.0-----
021811:24 amNNE 23 25----30.15- 54.9-----
021811:18 amNNE 22 24----30.15- 55.0-----
021811:12 amNNE 20 23----30.16- 55.4-----
021811:06 amNNE 22 25----30.16- 55.2-----
021811:00 amNNE 21 24----30.16+0.06 55.0-----
021810:54 amNNE 22 24----30.16- 55.0-----
021810:48 amNNE 22 26----30.16- 55.0-----
021810:42 amNNE 22 24----30.15- 55.0-----
021810:36 amNNE 21 27----30.15- 55.2-----
021810:30 amNNE 23 25----30.15- 55.2-----
021810:24 amNNE 23 26----30.15- 55.2-----
021810:18 amNNE 24 26----30.14- 55.0-----
021810:12 amNNE 23 28----30.14- 55.2-----
021810:06 amNNE 23 25----30.15- 55.2-----
021810:00 amNNE 21 24----30.15+0.08 55.4-----
0218 9:54 amNNE 22 24----30.14- 55.2-----
0218 9:48 amNNE 21 24----30.14- 55.2-----
0218 9:42 amNNE 21 23----30.14- 55.2-----
0218 9:36 amNNE 24 28----30.14- 55.2-----
0218 9:30 amNNE 25 29----30.14- 55.4-----
0218 9:24 amNNE 24 26----30.14- 55.4-----
0218 9:18 amNNE 23 25----30.14- 55.4-----
0218 9:12 amNNE 22 25----30.14- 55.4-----
0218 9:06 amNNE 22 25----30.13- 55.6-----
0218 9:00 amNNE 23 27----30.13+0.10 55.4-----
0218 8:54 amNNE 25 29----30.12- 55.4-----
0218 8:48 amNNE 26 29----30.12- 55.6-----
0218 8:42 amNNE 24 28----30.12- 55.8-----
0218 8:36 amNNE 26 28----30.11- 55.4-----
0218 8:30 amNNE 22 26----30.11- 55.9-----
0218 8:24 amNNE 23 27----30.11- 55.8-----
0218 8:18 amNNE 22 26----30.11- 55.9-----
0218 8:12 amNNE 24 27----30.10- 55.6-----
0218 8:06 amNNE 23 25----30.10- 55.6-----
0218 8:00 amNNE 23 27----30.10+0.11 55.8-----
0218 7:54 amNNE 24 26----30.10- 55.6-----
0218 7:48 amNNE 23 27----30.09- 55.8-----
0218 7:42 amNNE 25 29----30.09- 55.6-----
0218 7:36 amNNE 25 28----30.08- 55.8-----
0218 7:30 amNNE 25 29----30.08- 55.9-----
0218 7:24 amNNE 25 29----30.08- 55.6-----
0218 7:18 amNNE 24 27----30.08- 55.8-----
0218 7:12 amNNE 26 30----30.07- 55.6-----
0218 7:06 amNNE 28 31----30.07- 55.4-----
0218 7:00 am N 28 30----30.06+0.11 56.1-----
0218 6:54 amNNE 28 30----30.06- 56.5-----
0218 6:48 amNNE 26 29----30.06- 57.0-----
0218 6:42 amNNE 25 29----30.05- 57.0-----
0218 6:36 amNNE 25 28----30.05- 57.0-----
0218 6:30 amNNE 27 32----30.04- 57.0-----
0218 6:24 amNNE 24 27----30.04- 57.2-----
0218 6:18 amNNE 24 28----30.04- 57.4-----
0218 6:12 amNNE 26 28----30.03- 57.2-----
0218 6:06 amNNE 25 28----30.03- 57.2-----
0218 6:00 amNNE 24 27----30.02+0.07 57.0-----
0218 5:54 amNNE 23 26----30.02- 57.0-----
0218 5:48 amNNE 24 26----30.01- 57.0-----
0218 5:42 amNNE 23 27----30.01- 57.4-----
0218 5:36 amNNE 24 28----30.01- 57.4-----
0218 5:30 amNNE 24 28----30.01- 57.9-----
0218 5:24 amNNE 24 27----30.00- 57.9-----
0218 5:18 amNNE 23 27----30.00- 58.1-----
0218 5:12 amNNE 22 25----30.00- 58.3-----
0218 5:06 amNNE 25 28----29.99- 58.1-----
0218 5:00 amNNE 23 26----29.99+0.04 58.5-----
0218 4:54 amNNE 22 27----29.98- 58.3-----
0218 4:48 amNNE 24 27----29.98- 58.3-----
0218 4:42 amNNE 22 25----29.98- 58.5-----
0218 4:36 amNNE 22 25----29.98- 58.5-----
0218 4:30 amNNE 22 26----29.98- 58.5-----
0218 4:24 amNNE 22 25----29.97- 58.3-----
0218 4:18 amNNE 20 23----29.97- 58.3-----
0218 4:12 amNNE 19 20----29.97- 58.1-----
0218 4:06 amNNE 19 21----29.96- 58.3-----
0218 4:00 amNNE 20 23----29.96+0.02 58.3-----
0218 3:54 am NE 21 24----29.95- 58.3-----
0218 3:48 am NE 20 22----29.95- 58.1-----
0218 3:42 am NE 20 23----29.95- 58.3-----
0218 3:36 am NE 21 23----29.95- 58.3-----
0218 3:30 amNNE 23 26----29.95- 58.3-----
0218 3:24 amNNE 23 26----29.96- 58.5-----
0218 3:18 amNNE 22 24----29.96- 58.3-----
0218 3:12 amNNE 21 25----29.96- 59.0-----
0218 3:06 amNNE 24 27----29.96- 58.6-----
0218 3:00 amNNE 24 27----29.96+0.04 58.8-----
0218 2:54 amNNE 24 27----29.96- 59.0-----
0218 2:48 amNNE 24 27----29.96- 58.8-----
0218 2:42 amNNE 24 28----29.96- 59.2-----
0218 2:36 amNNE 25 28----29.95- 59.5-----
0218 2:30 amNNE 26 28----29.96- 59.9-----
0218 2:24 amNNE 26 29----29.96- 60.3-----
0218 2:18 amNNE 25 29----29.95- 60.3-----
0218 2:12 amNNE 29 32----29.95- 60.1-----
0218 2:06 amNNE 26 29----29.95- 60.1-----
0218 2:00 amNNE 25 31----29.95+0.04 60.1-----
0218 1:54 am N 29 30----29.95- 59.9-----

Description of Measurements

Links which are specific to this station are listed below:

Real Time Data in tabular form for the last forty-five days.

Historical Data & Climatic Summaries for quality controlled data for the current month, previous months, and previous years.